Orbital Elements at Epoch 2459000.5 (2020-May-31.0) TDB
Reference: JPL 26 (heliocentric ecliptic J2000)
Element | Value | Uncertainty (1-sigma) | Units |
e | .1134915735472269 | 3.3975e-08 | |
a | 2.255465858509541 | 7.4129e-09 | au |
q | 1.999489489145246 | 7.6061e-08 | au |
i | 7.483220771202291 | 4.0621e-06 | deg |
node | 201.7619829729128 | 2.7462e-05 | deg |
peri | 196.9389374266695 | 3.3002e-05 | deg |
M | 90.06421535312839 | 1.8387e-05 | deg |
tp | 2458690.970118055505 (2019-Jul-26.47011806) | 6.2748e-05 | TDB |
period | 1237.236754499161 3.39 | 6.0995e-06 1.67e-08 | d yr |
n | .2909709873157864 | 1.4345e-09 | deg/d |
Q | 2.511442227873836 | 8.2542e-09 | au |
|
| | Orbit Determination Parameters
Additional Information
|